When you browse on this site, cookies collect data to enhance your experience and personalize the content and advertising you see.
Visit our Privacy Policy to learn more. By continuing to use the site, you agree to this use of cookies and data.
  • In Austria
  • List of Countries
  • For 7 days
  • Water Temperature
  • Satellite Maps
  • Weather Map
  • News
  • Weather Widgets
  • user-avatar
    Login

    Hourly Weather Kiustendil

    Today, 18 November, Sunday

    Time Temperature Precipitation Wind Pressure Humidity
    00:00 -8°C° 0 mm 2 mps 626 mmHg 74%
    01:00 -6°C° 0 mm 1 mps 626 mmHg 74%
    02:00 -6°C° 0 mm 1 mps 625 mmHg 75%
    03:00 -7°C° 0 mm 2 mps 625 mmHg 76%
    04:00 -7°C° 0 mm 2 mps 625 mmHg 77%
    05:00 -6°C° 0 mm 1 mps 625 mmHg 77%
    06:00 -6°C° 0 mm 1 mps 625 mmHg 77%
    07:00 -4°C° 0 mm 1 mps 624 mmHg 77%
    08:00 -3°C° 0.2 mm 1 mps 625 mmHg 73%
    09:00 -2°C° 0.2 mm 1 mps 625 mmHg 69%
    10:00 -1°C° 0.2 mm 1 mps 625 mmHg 65%
    11:00 0°C° 0.4 mm 1 mps 624 mmHg 66%
    12:00 -2°C° 0.4 mm 2 mps 624 mmHg 67%
    13:00 -2°C° 0.4 mm 2 mps 623 mmHg 68%
    14:00 -2°C° 0.9 mm 2 mps 623 mmHg 73%
    15:00 -3°C° 0.9 mm 2 mps 622 mmHg 78%
    16:00 -4°C° 0.9 mm 2 mps 621 mmHg 82%
    17:00 -4°C° 1.2 mm 2 mps 620 mmHg 84%
    18:00 -4°C° 1.2 mm 2 mps 620 mmHg 86%
    19:00 -2°C° 1.2 mm 1 mps 620 mmHg 87%
    20:00 -3°C° 0.5 mm 1 mps 619 mmHg 87%
    21:00 -3°C° 0.5 mm 1 mps 619 mmHg 87%
    22:00 -3°C° 0.5 mm 1 mps 619 mmHg 87%
    23:00 -3°C° 0.5 mm 1 mps 618 mmHg 88%

    Tomorrow, 19 November, Monday

    Time Temperature Precipitation Wind Pressure Humidity
    00:00 -3°C° 0.5 mm 1 mps 618 mmHg 88%
    01:00 -3°C° 0.5 mm 1 mps 618 mmHg 89%
    02:00 -3°C° 0 mm 1 mps 618 mmHg 89%
    03:00 -4°C° 0 mm 1 mps 617 mmHg 89%
    04:00 -4°C° 0 mm 1 mps 617 mmHg 90%
    05:00 -4°C° 0 mm 1 mps 617 mmHg 89%
    06:00 -6°C° 0 mm 1 mps 617 mmHg 89%
    07:00 -6°C° 0 mm 1 mps 618 mmHg 89%
    08:00 -3°C° 0 mm 1 mps 619 mmHg 84%
    09:00 -2°C° 0 mm 1 mps 620 mmHg 80%
    10:00 0°C° 0 mm 1 mps 620 mmHg 76%
    11:00 +1°C° 0 mm 1 mps 621 mmHg 73%
    12:00 +2°C° 0 mm 1 mps 621 mmHg 71%
    13:00 +3°C° 0 mm 1 mps 621 mmHg 68%
    14:00 +2°C° 0 mm 1 mps 621 mmHg 71%
    15:00 0°C° 0 mm 1 mps 621 mmHg 74%
    16:00 -2°C° 0 mm 0 mps 621 mmHg 77%
    17:00 -1°C° 0 mm 1 mps 621 mmHg 78%
    18:00 -2°C° 0 mm 1 mps 621 mmHg 78%
    19:00 -2°C° 0 mm 1 mps 622 mmHg 79%
    20:00 -2°C° 0 mm 1 mps 622 mmHg 78%
    21:00 -2°C° 0 mm 1 mps 622 mmHg 76%
    22:00 -2°C° 0 mm 1 mps 622 mmHg 75%
    23:00 -2°C° 0 mm 1 mps 622 mmHg 75%

    Day after tomorrow, 20 November, Tuesday

    Time Temperature Precipitation Wind Pressure Humidity
    00:00 -2°C° 0 mm 1 mps 622 mmHg 74%
    01:00 -2°C° 0 mm 1 mps 622 mmHg 73%
    02:00 -1°C° 0.6 mm 1 mps 623 mmHg 76%
    03:00 -1°C° 0.6 mm 1 mps 623 mmHg 79%
    04:00 -3°C° 0.6 mm 2 mps 623 mmHg 82%
    05:00 -3°C° 0.2 mm 2 mps 623 mmHg 83%
    06:00 -3°C° 0.2 mm 2 mps 623 mmHg 84%
    07:00 -3°C° 0.2 mm 2 mps 623 mmHg 85%
    08:00 -1°C° 0.1 mm 2 mps 624 mmHg 83%
    09:00 0°C° 0.1 mm 3 mps 624 mmHg 81%
    10:00 +2°C° 0.1 mm 3 mps 625 mmHg 79%
    11:00 +2°C° 0.1 mm 3 mps 625 mmHg 79%
    12:00 +3°C° 0.1 mm 3 mps 624 mmHg 80%
    13:00 +3°C° 0.1 mm 3 mps 624 mmHg 80%
    14:00 +2°C° 0.1 mm 3 mps 624 mmHg 83%
    15:00 +2°C° 0.1 mm 3 mps 624 mmHg 86%
    16:00 +2°C° 0.1 mm 2 mps 623 mmHg 89%
    17:00 +2°C° 0.1 mm 2 mps 623 mmHg 90%
    18:00 +2°C° 0.1 mm 2 mps 623 mmHg 91%
    19:00 +1°C° 0.1 mm 2 mps 623 mmHg 92%
    20:00 +1°C° 0.1 mm 2 mps 623 mmHg 92%
    21:00 +2°C° 0.1 mm 2 mps 623 mmHg 92%
    22:00 +2°C° 0.1 mm 2 mps 623 mmHg 92%
    23:00 +2°C° 0.5 mm 2 mps 622 mmHg 93%

    21 November, Wednesday

    Time Temperature Precipitation Wind Pressure Humidity
    00:00 +1°C° 0.5 mm 2 mps 622 mmHg 93%
    01:00 +1°C° 0.5 mm 2 mps 622 mmHg 93%
    02:00 +1°C° 0.4 mm 2 mps 621 mmHg 93%
    03:00 +1°C° 0.4 mm 2 mps 621 mmHg 93%
    04:00 +2°C° 0.4 mm 1 mps 620 mmHg 92%
    05:00 +2°C° 0.5 mm 1 mps 620 mmHg 92%
    06:00 +3°C° 0.5 mm 1 mps 620 mmHg 92%
    07:00 +3°C° 0.5 mm 1 mps 620 mmHg 91%
    08:00 +3°C° 0.6 mm 1 mps 620 mmHg 90%
    09:00 +4°C° 0.6 mm 1 mps 620 mmHg 88%
    10:00 +4°C° 0.6 mm 1 mps 621 mmHg 87%
    11:00 +5°C° 0.2 mm 1 mps 621 mmHg 85%
    12:00 +5°C° 0.2 mm 1 mps 621 mmHg 84%
    13:00 +6°C° 0.2 mm 1 mps 621 mmHg 82%
    14:00 +5°C° 0.1 mm 1 mps 621 mmHg 84%
    15:00 +5°C° 0.1 mm 1 mps 621 mmHg 85%
    16:00 +4°C° 0.1 mm 1 mps 620 mmHg 87%
    17:00 +4°C° 0.1 mm 1 mps 621 mmHg 88%
    18:00 +3°C° 0.1 mm 1 mps 621 mmHg 89%
    19:00 +3°C° 0.1 mm 1 mps 621 mmHg 90%
    20:00 +3°C° 0.2 mm 1 mps 621 mmHg 91%
    21:00 +3°C° 0.2 mm 1 mps 622 mmHg 92%
    22:00 +2°C° 0.2 mm 1 mps 622 mmHg 92%
    23:00 +2°C° 0.1 mm 1 mps 622 mmHg 92%

    22 November, Thursday

    Time Temperature Precipitation Wind Pressure Humidity
    00:00 +2°C° 0.1 mm 1 mps 622 mmHg 93%
    01:00 +2°C° 0.1 mm 1 mps 622 mmHg 93%
    02:00 +1°C° 0 mm 1 mps 622 mmHg 93%
    03:00 +1°C° 0 mm 1 mps 622 mmHg 93%
    04:00 +1°C° 0 mm 1 mps 622 mmHg 93%
    05:00 +1°C° 0 mm 1 mps 622 mmHg 92%
    06:00 +1°C° 0 mm 1 mps 622 mmHg 92%
    07:00 +1°C° 0 mm 1 mps 623 mmHg 92%
    08:00 +2°C° 0 mm 1 mps 623 mmHg 85%
    09:00 +3°C° 0 mm 1 mps 624 mmHg 79%
    10:00 +5°C° 0 mm 1 mps 625 mmHg 73%
    11:00 +4°C° 0 mm 2 mps 625 mmHg 71%
    12:00 +5°C° 0 mm 2 mps 625 mmHg 69%
    13:00 +5°C° 0 mm 2 mps 625 mmHg 66%
    14:00 +4°C° 0 mm 2 mps 625 mmHg 71%
    15:00 +3°C° 0 mm 2 mps 625 mmHg 75%
    16:00 +3°C° 0 mm 1 mps 625 mmHg 80%
    17:00 +2°C° 0 mm 1 mps 625 mmHg 82%
    18:00 +1°C° 0 mm 1 mps 625 mmHg 85%
    19:00 +1°C° 0 mm 1 mps 625 mmHg 88%
    20:00 0°C° 0 mm 1 mps 625 mmHg 88%
    21:00 0°C° 0 mm 1 mps 626 mmHg 89%
    22:00 -1°C° 0 mm 1 mps 626 mmHg 89%
    23:00 -1°C° 0 mm 1 mps 626 mmHg 89%

    23 November, Friday

    Time Temperature Precipitation Wind Pressure Humidity
    00:00 -1°C° 0 mm 1 mps 626 mmHg 88%
    01:00 -2°C° 0 mm 1 mps 626 mmHg 88%
    02:00 -2°C° 0 mm 1 mps 626 mmHg 88%
    03:00 -2°C° 0 mm 1 mps 626 mmHg 87%
    04:00 -2°C° 0 mm 1 mps 626 mmHg 87%
    05:00 -2°C° 0 mm 1 mps 626 mmHg 86%
    06:00 -2°C° 0 mm 1 mps 627 mmHg 86%
    07:00 -2°C° 0 mm 1 mps 627 mmHg 86%
    08:00 -1°C° 0 mm 1 mps 628 mmHg 79%
    09:00 +1°C° 0 mm 1 mps 629 mmHg 72%
    10:00 +3°C° 0 mm 1 mps 629 mmHg 65%
    11:00 +4°C° 0 mm 1 mps 629 mmHg 63%
    12:00 +4°C° 0 mm 1 mps 629 mmHg 61%
    13:00 +5°C° 0 mm 1 mps 629 mmHg 59%
    14:00 +4°C° 0 mm 1 mps 629 mmHg 63%
    15:00 +3°C° 0 mm 1 mps 628 mmHg 68%
    16:00 +2°C° 0 mm 1 mps 628 mmHg 73%
    17:00 +1°C° 0 mm 1 mps 628 mmHg 76%
    18:00 0°C° 0 mm 1 mps 628 mmHg 78%
    19:00 0°C° 0 mm 1 mps 628 mmHg 81%
    20:00 -1°C° 0 mm 1 mps 628 mmHg 82%
    21:00 -1°C° 0 mm 1 mps 628 mmHg 83%
    22:00 -1°C° 0 mm 1 mps 628 mmHg 84%
    23:00 -1°C° 0 mm 1 mps 627 mmHg 85%
    Show more